STARLINK-11187 [DTC]

Last updated on Sat Aug 03 2024 00:02:04 GMT+0000 (Coordinated Universal Time)

1 60184U 24124B 24215.58435003 .00181139 00000+0 10872-2 0 9996 2 60184 53.1576 161.4260 0001510 79.0624 281.0567 15.76730949 4782

Satellite not in orbit

STARLINK-11187 [DTC]